[[{"header":{"parameterUnit":"m.s-1","parameterCategory":2,"la1":30.2991,"la2":30.254,"lo1":-89.0895,"lo2":-89.0444,"dy":0.0017,"dx":0.0017,"nx":28,"ny":28,"refTime":"2025-07-28T21:00:00:Z","depth":"0","parameterNumber":2,"parameterNumberName":"U-component_of_CURRENTS"},"data":[0,0,0,0,0,0,0,0,0,0,0,0,0,0,0,0,0,0,0,0,0,0,0,0,0,0,0,0,0,0,0,0,0,0,0,0,0,0,0,0,0,0,0,0,0,0,0,0,0,0,0,0,0,0,0,0,0,0,0.1888,0.1889,0,0.2006,0.2007,0.2008,0.2057,0.2057,0.2057,0.2056,0.2129,0.2131,0.2133,0,0,0,0,0,0,0,0,0,0,0,0,0,0.1687,0.1691,0.1888,0.1889,0.1891,0.2006,0.2007,0.2009,0.2057,0.2057,0.2057,0.2056,0.2128,0.213,0.2133,0,0,0,0,0,0,0,0,0,0,0,0,0,0.1786,0.1692,0.1887,0.193,0.1935,0.2005,0.2007,0.2009,0.2057,0.2057,0.2056,0.2056,0.2127,0.213,0.2133,0.2157,0,0,0.2143,0.2144,0,0,0,0,0,0,0,0,0.178,0.1793,0.1922,0.1927,0.1933,0.2017,0.1963,0.2057,0.2057,0.2009,0.2056,0.2056,0.2088,0.2094,0.2116,0.216,0.2163,0.2143,0.2145,0.2146,0.2147,0,0,0,0,0,0,0,0.1773,0.1788,0.1933,0.1924,0.193,0.1937,0.1951,0.1981,0.2047,0.2013,0.2017,0.2033,0.2091,0.2113,0.2118,0.2164,0.2143,0.2146,0.2147,0.2149,0.2249,0.225,0,0,0,0,0,0,0.1763,0.1782,0.1929,0.1937,0.1856,0.1941,0.1956,0.1989,0.2048,0.2057,0.2033,0.2034,0.2108,0.2114,0.2121,0.2172,0.2146,0.2149,0.2151,0.2249,0.225,0.2251,0,0,0,0,0,0,0.1758,0.1776,0.1925,0.1861,0.1881,0.1945,0.1982,0.1992,0.2017,0.2063,0.2071,0.2047,0.2108,0.2116,0.2159,0.2174,0.215,0.2153,0.2248,0.2249,0.225,0.2262,0,0,0,0,0,0,0.1753,0.1774,0.1783,0.1862,0.1884,0.1967,0.1982,0.1994,0.2027,0.2031,0.2078,0.2085,0.2108,0.2154,0.2162,0.2178,0.2156,0.2247,0.2248,0.225,0.2261,0.2264,0.2266,0,0,0,0,0,0.1745,0.1763,0.1783,0.1801,0.19,0.1968,0.198,0.2023,0.2028,0.2043,0.2079,0.2083,0.2169,0.2158,0.2167,0.2184,0.2246,0.2248,0.225,0.2259,0.2263,0.2266,0,0,0,0,0,0,0.1677,0.1772,0.1796,0.1841,0.1899,0.1977,0.199,0.2022,0.2064,0.2062,0.21,0.211,0.2157,0.2166,0.2152,0.2217,0.2206,0.2209,0.221,0.2214,0.2217,0.2219,0.2158,0,0,0,0,0,0.1668,0.171,0.1795,0.1828,0.1855,0.1921,0.1949,0.1984,0.2036,0.2054,0.2094,0.213,0.2172,0.2188,0.2226,0.2258,0.2289,0.2273,0.2276,0.2278,0.2286,0.2336,0.2344,0.2257,0.2257,0.2257,0,0,0.165,0.1707,0.1729,0.1816,0.186,0.191,0.1937,0.1984,0.2027,0.2054,0.2112,0.2146,0.2185,0.2231,0.225,0.2239,0.2324,0.228,0.2282,0.2289,0.2339,0.2348,0.2355,0.2258,0.2258,0.2257,0,0,0.1641,0.1686,0.172,0.1771,0.1844,0.1891,0.1904,0.1987,0.2022,0.2083,0.2116,0.2161,0.2218,0.2258,0.2281,0.2319,0.2343,0.2322,0.2332,0.2381,0.2389,0.2396,0.2466,0.2479,0.2315,0.2315,0.2315,0,0.1608,0.1679,0.1735,0.1783,0.1825,0.1882,0.1927,0.1975,0.2062,0.2097,0.2098,0.2209,0.2236,0.2304,0.2317,0.2327,0.2362,0.2316,0.2385,0.2392,0.2399,0.2469,0.2484,0.2316,0.2316,0.2316,0.2315,0,0.164,0.1689,0.171,0.1796,0.1842,0.1889,0.1966,0.2012,0.2054,0.2108,0.2187,0.2237,0.23,0.2313,0.2328,0.2392,0.2406,0.2389,0.2376,0.2409,0.2481,0.2495,0.2317,0.2317,0.2316,0.2316,0,0,0.1589,0.171,0.1716,0.1761,0.1857,0.1901,0.1966,0.2053,0.2102,0.2168,0.2239,0.2308,0.2332,0.2361,0.2387,0.2423,0.2508,0.2422,0.2424,0.2491,0.2637,0.2707,0.273,0.2498,0.25,0.2502,0.2674,0,0.1597,0.1679,0.1744,0.1817,0.1867,0.1941,0.2002,0.2079,0.2145,0.2223,0.2279,0.2351,0.235,0.2382,0.2422,0.2492,0.2544,0.2464,0.2595,0.26,0.2657,0.2748,0.2723,0.2879,0.2689,0.2691,0.2693,0,0.1614,0.1671,0.1741,0.1848,0.1875,0.192,0.2026,0.2093,0.2202,0.2256,0.2328,0.2379,0.2465,0.2444,0.2584,0.2532,0.2589,0.2633,0.264,0.2711,0.2698,0.2811,0.2913,0.2755,0.2716,0.2714,0.2712,0,0.1565,0.1671,0.1725,0.1763,0.1884,0.1924,0.1985,0.2094,0.2163,0.2276,0.2335,0.2434,0.2503,0.2575,0.2679,0.2633,0.2834,0.278,0.2903,0.2909,0.2919,0.2922,0.2882,0.2879,0.2879,0.2878,0.2878,0,0.1565,0.1609,0.1702,0.1736,0.1798,0.189,0.1966,0.2046,0.2164,0.226,0.234,0.2441,0.2536,0.2661,0.272,0.289,0.2876,0.2944,0.2969,0.2925,0.2927,0.2814,0.2744,0.2885,0.2883,0.2882,0.2881,0,0.1522,0.1585,0.1649,0.1751,0.1781,0.1822,0.1946,0.2016,0.2124,0.2253,0.2293,0.2469,0.2657,0.2772,0.2929,0.2972,0.303,0.3153,0.3115,0.3133,0.3082,0.3016,0.2991,0.2909,0.3318,0.3321,0.3324,0,0.1522,0.1545,0.163,0.1667,0.1715,0.1786,0.1852,0.1976,0.207,0.2285,0.236,0.257,0.2746,0.3025,0.3158,0.3326,0.3159,0.337,0.3274,0.3113,0.3056,0.2899,0.2817,0.3297,0.3299,0.3301,0.3302,0,0.1511,0.1525,0.1572,0.1632,0.1693,0.1767,0.1873,0.1932,0.211,0.2231,0.2441,0.259,0.2918,0.3104,0.3337,0.343,0.3208,0.3411,0.3241,0.3057,0.2887,0.2807,0.3152,0.3317,0.3316,0.3315,0.3314,0.3313,0.1497,0.1505,0.1553,0.1608,0.1673,0.1749,0.1802,0.1934,0.2064,0.2263,0.2437,0.2643,0.2939,0.3289,0.3366,0.3424,0.3352,0.3337,0.3284,0.3147,0.3019,0.3424,0.361,0.361,0.361,0.361,0.361,0,0.1498,0.1503,0.1541,0.1605,0.1657,0.1706,0.1829,0.1889,0.2024,0.2225,0.2407,0.2675,0.291,0.3116,0.3317,0.3261,0.3116,0.3168,0.2886,0.282,0.3192,0.3137,0.3232,0.3232,0.3232,0.3232,0.3233,0.3233,0.1511,0.1516,0.152,0.1576,0.1622,0.169,0.1746,0.1838,0.1972,0.2153,0.2296,0.2459,0.2745,0.3011,0.3045,0.301,0.2713,0.2699,0.2583,0.2778,0.2785,0.2791,0.2717,0.2723,0.2722,0.2121,0.2117,0.2113]},{"header":{"parameterUnit":"m.s-1","parameterCategory":2,"la1":30.2991,"la2":30.254,"lo1":-89.0895,"lo2":-89.0444,"dy":0.0017,"dx":0.0017,"nx":28,"ny":28,"refTime":"2025-07-28T21:00:00:Z","depth":"0","parameterNumber":3,"parameterNumberName":"V-component_of_CURRENTS"},"data":[0,0,0,0,0,0,0,0,0,0,0,0,0,0,0,0,0,0,0,0,0,0,0,0,0,0,0,0,0,0,0,0,0,0,0,0,0,0,0,0,0,0,0,0,0,0,0,0,0,0,0,0,0,0,0,0,0,0,0.0317,0.0317,0,0.0299,0.0298,0.0298,0.0262,0.0262,0.0261,0.026,0.0183,0.0182,0.018,0,0,0,0,0,0,0,0,0,0,0,0,0,0.0297,0.0298,0.0317,0.0317,0.0317,0.0299,0.0298,0.0298,0.0262,0.0262,0.0261,0.026,0.0184,0.0182,0.018,0,0,0,0,0,0,0,0,0,0,0,0,0,0.0294,0.0298,0.0317,0.0298,0.0296,0.0299,0.0298,0.0298,0.0262,0.0261,0.0261,0.026,0.0184,0.0182,0.018,0.0185,0,0,0.0173,0.0172,0,0,0,0,0,0,0,0,0.0295,0.0295,0.0301,0.0299,0.0297,0.0283,0.0263,0.0257,0.0263,0.0274,0.026,0.0259,0.0212,0.0208,0.0206,0.0181,0.0178,0.0173,0.0172,0.0171,0.017,0,0,0,0,0,0,0,0.0295,0.0295,0.0309,0.0301,0.0298,0.0282,0.028,0.0262,0.0247,0.0273,0.0271,0.027,0.0211,0.0208,0.0204,0.0177,0.0173,0.0171,0.017,0.0169,0.0113,0.0113,0,0,0,0,0,0,0.0302,0.0296,0.0309,0.0308,0.0295,0.0283,0.0281,0.0287,0.0248,0.0242,0.0271,0.0269,0.0212,0.0206,0.0201,0.0184,0.0171,0.0169,0.0167,0.0113,0.0113,0.0113,0,0,0,0,0,0,0.0301,0.0303,0.031,0.0302,0.0302,0.0284,0.0291,0.0287,0.0282,0.0248,0.024,0.0269,0.0211,0.0204,0.0189,0.0182,0.0168,0.0166,0.0113,0.0113,0.0113,0.0164,0,0,0,0,0,0,0.0301,0.0304,0.031,0.0303,0.0303,0.0319,0.0292,0.0288,0.0284,0.028,0.0243,0.0235,0.021,0.0193,0.0187,0.0178,0.0164,0.0114,0.0113,0.0113,0.0162,0.0166,0.0168,0,0,0,0,0,0.0301,0.0325,0.0311,0.0313,0.0313,0.032,0.0318,0.0301,0.0285,0.0291,0.0264,0.0236,0.0186,0.0192,0.0185,0.0175,0.0114,0.0113,0.0113,0.0161,0.0165,0.0168,0,0,0,0,0,0,0.0332,0.0324,0.0308,0.0331,0.0324,0.0314,0.0321,0.0305,0.0291,0.0284,0.0246,0.0237,0.0218,0.0193,0.02,0.0156,0.014,0.0139,0.0179,0.0182,0.0185,0.0184,0.0162,0,0,0,0,0,0.0339,0.0347,0.0337,0.0354,0.0352,0.0334,0.0334,0.0321,0.0308,0.03,0.0275,0.0242,0.0213,0.0196,0.0172,0.0157,0.0123,0.0141,0.0144,0.0147,0.014,0.0089,0.0087,0.0112,0.0112,0.0112,0,0,0.0359,0.0352,0.0359,0.0359,0.0351,0.0356,0.0332,0.0337,0.0332,0.0294,0.0284,0.0257,0.0212,0.0194,0.0181,0.017,0.0125,0.0147,0.0149,0.014,0.0088,0.0086,0.0084,0.0112,0.0112,0.0112,0,0,0.0403,0.0393,0.0412,0.0405,0.0395,0.038,0.0382,0.0371,0.0356,0.0348,0.0311,0.0282,0.0249,0.0211,0.0187,0.019,0.0145,0.0178,0.0187,0.0139,0.0136,0.0134,0.0102,0.0096,0.0175,0.0175,0.0175,0,0.0425,0.0442,0.0421,0.0431,0.0427,0.0392,0.0406,0.0389,0.0373,0.0357,0.035,0.0285,0.0253,0.0208,0.0207,0.0195,0.0166,0.0182,0.0143,0.0139,0.0136,0.0104,0.0096,0.0178,0.0177,0.0177,0.0177,0,0.0479,0.0484,0.0497,0.0488,0.0481,0.0491,0.0458,0.0446,0.042,0.0397,0.0358,0.0318,0.0273,0.0256,0.0232,0.0185,0.0174,0.0158,0.0137,0.0136,0.0103,0.0094,0.0181,0.018,0.018,0.0179,0,0,0.0549,0.0537,0.0539,0.0535,0.0508,0.0511,0.0491,0.0465,0.0453,0.0417,0.0396,0.0337,0.0307,0.0276,0.0237,0.0191,0.0148,0.0166,0.0162,0.014,0.005,0.0059,0.005,0.0125,0.0124,0.0123,0.0043,0,0.0595,0.0623,0.0598,0.0612,0.0621,0.0569,0.0555,0.0519,0.0486,0.046,0.0388,0.0361,0.0315,0.03,0.0243,0.0178,0.0125,0.0172,0.0048,0.0045,0.0057,0.004,0.0075,0.0007,0.0034,0.0033,0.0031,0,0.0654,0.0659,0.0686,0.0661,0.066,0.0659,0.062,0.0604,0.0541,0.0515,0.0457,0.0409,0.0333,0.0302,0.0168,0.0201,0.0123,0.0068,0.0063,0.0044,0.0037,0.0008,-0.001,-0.0192,0.0018,0.0019,0.002,0,0.0713,0.0716,0.0736,0.0731,0.0703,0.0697,0.0676,0.0625,0.0614,0.0553,0.0547,0.044,0.0408,0.0285,0.0173,0.0165,0.0035,0.0009,-0.0062,-0.0061,-0.0072,-0.007,-0.0278,-0.0101,-0.01,-0.01,-0.01,0,0.0771,0.0784,0.0767,0.0781,0.079,0.0752,0.0753,0.0718,0.0681,0.0681,0.0585,0.0576,0.0402,0.0313,0.0186,0.0048,0.004,-0.0068,-0.0088,-0.0051,-0.0046,-0.0237,-0.0309,-0.0103,-0.0102,-0.0102,-0.0101,0,0.0829,0.0823,0.0843,0.0828,0.0823,0.083,0.0807,0.0812,0.0774,0.0773,0.076,0.0671,0.0565,0.0398,0.0216,0.0087,-0.0135,-0.0105,-0.0038,-0.0049,-0.0291,-0.0359,-0.0546,-0.0599,-0.0211,-0.0211,-0.0212,0,0.0855,0.0877,0.0884,0.0895,0.0891,0.0891,0.0896,0.086,0.0876,0.0844,0.0862,0.0767,0.0735,0.0478,0.024,0.0017,-0.0136,-0.0126,-0.0149,-0.0312,-0.0404,-0.0445,-0.0479,-0.014,-0.0139,-0.0139,-0.0139,0,0.0892,0.0902,0.0917,0.0949,0.0965,0.0979,0.0992,0.102,0.0994,0.1012,0.1034,0.1014,0.0793,0.0606,0.0297,0.0118,-0.022,-0.0128,-0.0328,-0.0395,-0.0424,-0.048,-0.0072,-0.0137,-0.0137,-0.0137,-0.0137,-0.0137,0.0902,0.0926,0.0951,0.0978,0.1012,0.1058,0.108,0.1127,0.1171,0.1231,0.1199,0.1235,0.0919,0.0521,0.0264,-0.0228,-0.0208,-0.0377,-0.0453,-0.0486,-0.0526,-0.0103,-0.0169,-0.0169,-0.017,-0.017,-0.017,0,0.0877,0.0919,0.0966,0.1003,0.1052,0.1064,0.1131,0.1181,0.1266,0.1391,0.1439,0.1325,0.0933,0.0497,-0.0139,-0.0481,-0.0605,-0.0696,-0.0775,-0.0799,-0.0461,-0.0449,-0.0541,-0.054,-0.054,-0.054,-0.054,-0.054,0.0858,0.0899,0.0936,0.1008,0.1051,0.1114,0.1159,0.1279,0.1396,0.1579,0.1655,0.1678,0.1295,0.0135,-0.0655,-0.0845,-0.1092,-0.112,-0.1254,-0.1064,-0.1041,-0.102,-0.103,-0.1243,-0.1243,-0.1539,-0.1542,-0.1545]}],[{"header":{"parameterUnit":"m.s-1","parameterCategory":2,"la1":30.2991,"la2":30.254,"lo1":-89.0895,"lo2":-89.0444,"dy":0.0017,"dx":0.0017,"nx":28,"ny":28,"refTime":"2025-07-28T21:00:00:Z","depth":"2","parameterNumber":2,"parameterNumberName":"U-component_of_CURRENTS"},"data":[0,0,0,0,0,0,0,0,0,0,0,0,0,0,0,0,0,0,0,0,0,0,0,0,0,0,0,0,0,0,0,0,0,0,0,0,0,0,0,0,0,0,0,0,0,0,0,0,0,0,0,0,0,0,0,0,0,0,0.1282,0.1283,0,0.1328,0.1328,0.1329,0.1335,0.1335,0.1335,0.1335,0.1319,0.1319,0.1318,0,0,0,0,0,0,0,0,0,0,0,0,0,0.117,0.1172,0.1282,0.1283,0.1284,0.1328,0.1328,0.1329,0.1335,0.1335,0.1335,0.1335,0.1319,0.1319,0.1318,0,0,0,0,0,0,0,0,0,0,0,0,0,0.1214,0.1172,0.1282,0.1295,0.1297,0.1328,0.1328,0.1329,0.1335,0.1335,0.1335,0.1335,0.1319,0.1319,0.1318,0.1318,0,0,0.1317,0.1316,0,0,0,0,0,0,0,0,0.1212,0.1218,0.1292,0.1294,0.1297,0.1329,0.1283,0.1323,0.1335,0.1317,0.1335,0.1335,0.1319,0.1318,0.1323,0.1317,0.1317,0.1317,0.1316,0.1316,0.1316,0,0,0,0,0,0,0,0.1209,0.1216,0.1297,0.1294,0.1296,0.1288,0.1294,0.129,0.1315,0.1319,0.132,0.1331,0.1319,0.1324,0.1323,0.1317,0.1317,0.1316,0.1316,0.1316,0.135,0.1351,0,0,0,0,0,0,0.1212,0.1213,0.1296,0.1299,0.1257,0.1291,0.1298,0.1316,0.1316,0.1317,0.1331,0.1331,0.1325,0.1323,0.1322,0.1344,0.1316,0.1316,0.1315,0.1349,0.135,0.1351,0,0,0,0,0,0,0.121,0.1219,0.1294,0.1259,0.1268,0.1294,0.1314,0.1317,0.1326,0.1327,0.1326,0.1337,0.1325,0.1323,0.133,0.1343,0.1315,0.1315,0.1347,0.1349,0.1351,0.1374,0,0,0,0,0,0,0.1206,0.1218,0.1226,0.126,0.1271,0.1313,0.1314,0.1318,0.1334,0.1334,0.1332,0.133,0.1324,0.1331,0.1329,0.1341,0.1315,0.1346,0.1348,0.135,0.1371,0.1376,0.138,0,0,0,0,0,0.1202,0.1215,0.1226,0.1236,0.1283,0.1313,0.1318,0.1332,0.1334,0.1339,0.1344,0.133,0.1345,0.1331,0.1329,0.1341,0.1345,0.1347,0.135,0.1369,0.1375,0.138,0,0,0,0,0,0,0.1161,0.1219,0.1231,0.1258,0.1284,0.1316,0.132,0.1335,0.1343,0.1342,0.134,0.1339,0.135,0.1347,0.1332,0.1361,0.1345,0.1347,0.136,0.1365,0.137,0.1382,0.1314,0,0,0,0,0,0.116,0.1186,0.1233,0.125,0.1265,0.1293,0.1305,0.1321,0.1338,0.1342,0.1345,0.1351,0.136,0.1363,0.1366,0.1377,0.1413,0.1387,0.1392,0.1395,0.1407,0.147,0.1481,0.136,0.136,0.136,0,0,0.1145,0.1181,0.1193,0.1243,0.1261,0.1287,0.1299,0.1322,0.1342,0.1337,0.1354,0.1361,0.1367,0.1383,0.1389,0.1381,0.1454,0.1399,0.1401,0.1411,0.1474,0.1485,0.1496,0.1362,0.1362,0.1362,0,0,0.1134,0.1164,0.1185,0.1213,0.1254,0.1277,0.1286,0.1325,0.1339,0.1362,0.1368,0.1388,0.1395,0.1411,0.1417,0.1448,0.1473,0.1449,0.148,0.1541,0.1552,0.1561,0.1645,0.1662,0.1453,0.1453,0.1453,0,0.1108,0.1154,0.119,0.1218,0.1243,0.1274,0.13,0.132,0.1355,0.1379,0.1368,0.1418,0.1411,0.1453,0.1463,0.1457,0.1508,0.1456,0.1547,0.1557,0.1567,0.165,0.1669,0.1455,0.1454,0.1454,0.1454,0,0.1126,0.1155,0.1166,0.1219,0.1245,0.1271,0.1315,0.1339,0.1361,0.1393,0.1439,0.1447,0.1486,0.1483,0.1478,0.1545,0.1567,0.1543,0.1533,0.158,0.1666,0.1684,0.1457,0.1456,0.1456,0.1455,0,0,0.1079,0.1164,0.1164,0.1195,0.1254,0.1279,0.1315,0.1372,0.1415,0.1441,0.1505,0.1516,0.1542,0.1553,0.1559,0.1602,0.1707,0.1604,0.1607,0.1686,0.1876,0.1858,0.1877,0.1704,0.1707,0.1709,0.1917,0,0.1077,0.1135,0.1178,0.1219,0.1256,0.1302,0.1339,0.1392,0.144,0.1507,0.1539,0.1592,0.1564,0.1594,0.1635,0.1691,0.1755,0.1655,0.1819,0.1825,0.1801,0.1897,0.1667,0.1829,0.1936,0.1939,0.1941,0,0.1078,0.1125,0.117,0.125,0.1268,0.1292,0.1376,0.1418,0.1513,0.1559,0.1626,0.1665,0.1745,0.1705,0.1843,0.1787,0.184,0.1875,0.1884,0.1871,0.1841,0.1795,0.1859,0.1972,0.197,0.1967,0.1965,0,0.1043,0.1115,0.1154,0.1179,0.1269,0.1293,0.134,0.1429,0.1492,0.1604,0.1673,0.1763,0.1834,0.1902,0.198,0.1928,0.2141,0.2076,0.2118,0.2119,0.1957,0.1937,0.2184,0.2184,0.2183,0.2183,0.2182,0,0.1033,0.106,0.1139,0.1161,0.1215,0.1278,0.1349,0.1412,0.153,0.1627,0.17,0.1803,0.1887,0.2011,0.205,0.2168,0.2209,0.216,0.2178,0.1961,0.194,0.2073,0.2058,0.219,0.2189,0.2187,0.2186,0,0.0985,0.1036,0.1087,0.1172,0.1199,0.1234,0.1352,0.1422,0.1526,0.1661,0.1707,0.1876,0.2047,0.2143,0.2291,0.2272,0.2368,0.2395,0.2152,0.2136,0.2288,0.2272,0.2467,0.2468,0.2469,0.247,0.2471,0,0.0979,0.0995,0.1076,0.1111,0.1146,0.1216,0.128,0.1402,0.1493,0.1707,0.1783,0.1989,0.2104,0.233,0.2345,0.2443,0.249,0.2305,0.214,0.2324,0.2322,0.2303,0.2285,0.1951,0.1947,0.1945,0.1942,0,0.096,0.0971,0.1009,0.108,0.1139,0.122,0.1321,0.1396,0.156,0.1678,0.1861,0.1959,0.2146,0.2157,0.2285,0.2287,0.226,0.225,0.2531,0.1906,0.1851,0.1844,0.1841,0.1916,0.1919,0.1921,0.1922,0.1923,0.0947,0.095,0.0994,0.1053,0.1122,0.1212,0.127,0.1396,0.1528,0.1666,0.1805,0.1889,0.1949,0.2022,0.2034,0.2049,0.2163,0.2069,0.2072,0.2079,0.1973,0.1922,0.1983,0.1986,0.1988,0.1991,0.1993,0,0.0977,0.0965,0.0985,0.1058,0.1112,0.1161,0.1293,0.1325,0.1448,0.1576,0.1664,0.1577,0.1623,0.1744,0.1693,0.1706,0.1608,0.1688,0.1539,0.1565,0.1589,0.1451,0.1327,0.1326,0.1324,0.1323,0,0,0.101,0.0996,0.0973,0.1026,0.1075,0.1138,0.1197,0.124,0.1318,0.1326,0.1374,0.1474,0.1629,0.1445,0.1436,0.1393,0.1456,0.1334,0.1856,0.1701,0.1723,0.1794,0.1611,0,0,0,0,0]},{"header":{"parameterUnit":"m.s-1","parameterCategory":2,"la1":30.2991,"la2":30.254,"lo1":-89.0895,"lo2":-89.0444,"dy":0.0017,"dx":0.0017,"nx":28,"ny":28,"refTime":"2025-07-28T21:00:00:Z","depth":"2","parameterNumber":3,"parameterNumberName":"V-component_of_CURRENTS"},"data":[0,0,0,0,0,0,0,0,0,0,0,0,0,0,0,0,0,0,0,0,0,0,0,0,0,0,0,0,0,0,0,0,0,0,0,0,0,0,0,0,0,0,0,0,0,0,0,0,0,0,0,0,0,0,0,0,0,0,0.0273,0.0272,0,0.0204,0.0203,0.0203,0.0153,0.0153,0.0152,0.0152,0.008,0.0079,0.0077,0,0,0,0,0,0,0,0,0,0,0,0,0,0.0359,0.0357,0.0273,0.0272,0.0271,0.0204,0.0203,0.0203,0.0153,0.0153,0.0152,0.0152,0.0081,0.0079,0.0077,0,0,0,0,0,0,0,0,0,0,0,0,0,0.031,0.0357,0.0273,0.0238,0.0234,0.0204,0.0203,0.0202,0.0153,0.0153,0.0152,0.0151,0.0081,0.0079,0.0077,0.0079,0,0,0.007,0.0069,0,0,0,0,0,0,0,0,0.0313,0.0307,0.0244,0.024,0.0236,0.0186,0.0207,0.016,0.0154,0.0185,0.0152,0.0151,0.0115,0.011,0.01,0.0075,0.0072,0.007,0.0069,0.0068,0.0067,0,0,0,0,0,0,0,0.0316,0.0309,0.0247,0.0243,0.0238,0.0224,0.0217,0.0198,0.0156,0.0182,0.0178,0.0169,0.0113,0.0102,0.0098,0.0071,0.007,0.0068,0.0067,0.0066,-0.0018,-0.0019,0,0,0,0,0,0,0.0323,0.0313,0.0249,0.0245,0.0272,0.0223,0.0215,0.0203,0.0156,0.0148,0.017,0.0167,0.0107,0.0101,0.0095,0.0068,0.0068,0.0066,0.0065,-0.0017,-0.0018,-0.0019,0,0,0,0,0,0,0.0325,0.0318,0.0252,0.0276,0.0267,0.0222,0.021,0.0202,0.019,0.0146,0.0138,0.0165,0.0106,0.0098,0.0077,0.0066,0.0065,0.0063,-0.0016,-0.0018,-0.0019,0.003,0,0,0,0,0,0,0.0328,0.0319,0.032,0.0277,0.0266,0.0242,0.021,0.0201,0.0185,0.0181,0.014,0.0132,0.0105,0.0081,0.0075,0.0063,0.0061,-0.0015,-0.0017,-0.0018,0.003,0.003,0.0031,0,0,0,0,0,0.0332,0.0333,0.032,0.0312,0.0265,0.0242,0.0236,0.0202,0.0186,0.0187,0.0154,0.0133,0.0064,0.0079,0.0072,0.0059,-0.0014,-0.0016,-0.0018,0.0029,0.003,0.0031,0,0,0,0,0,0,0.0369,0.0327,0.0312,0.03,0.0277,0.0233,0.023,0.0208,0.0183,0.0178,0.0136,0.0127,0.01,0.0073,0.009,0.0025,0.0016,0.0012,0.0054,0.0055,0.0055,0.0066,0.0059,0,0,0,0,0,0.0379,0.0368,0.0329,0.0321,0.0312,0.0274,0.0261,0.0239,0.0208,0.0196,0.0166,0.0124,0.0086,0.0067,0.0036,0.0014,-0.001,-0.0007,-0.0006,-0.0005,-0.0004,-0.0049,-0.0052,-0.0026,-0.0026,-0.0026,0,0,0.0389,0.0366,0.0359,0.0329,0.0308,0.0293,0.0265,0.025,0.0233,0.0193,0.0169,0.0136,0.0082,0.005,0.0034,0.0027,-0.0023,-0.0007,-0.0006,-0.0005,-0.0052,-0.0054,-0.0056,-0.0028,-0.0028,-0.0027,0,0,0.0404,0.0388,0.0383,0.0367,0.0339,0.0316,0.0314,0.0277,0.0257,0.0235,0.019,0.0153,0.0107,0.006,0.0029,0.0016,-0.0013,-0.0002,0.001,-0.0035,-0.0036,-0.0038,-0.0056,-0.006,-0.0006,-0.0006,-0.0006,0,0.0417,0.0402,0.038,0.0372,0.0357,0.0327,0.0318,0.0297,0.0257,0.0243,0.0233,0.0149,0.0107,0.0051,0.0037,0.0019,-0.0001,0.0017,-0.0031,-0.0034,-0.0036,-0.0054,-0.0059,-0.0004,-0.0004,-0.0004,-0.0005,0,0.0423,0.0413,0.0412,0.0386,0.0374,0.0365,0.0332,0.032,0.0297,0.0272,0.0229,0.0174,0.0122,0.0093,0.006,0.0009,0.0005,-0.0016,-0.0025,-0.0035,-0.0054,-0.006,-0.0001,-0.0002,-0.0002,-0.0003,0,0,0.0433,0.0418,0.0415,0.0409,0.038,0.037,0.0352,0.0324,0.0319,0.0278,0.0262,0.0179,0.0158,0.012,0.0071,0.0023,-0.0014,-0.0004,-0.0007,-0.0005,-0.0092,-0.0103,-0.0111,-0.0041,-0.0042,-0.0043,-0.009,0,0.0438,0.0432,0.0419,0.041,0.0403,0.0379,0.0367,0.0343,0.0326,0.0312,0.0248,0.0219,0.0165,0.0145,0.0088,0.0017,-0.0031,0.0001,-0.0096,-0.0099,-0.0095,-0.012,-0.0137,-0.0181,-0.0096,-0.0097,-0.0098,0,0.044,0.0434,0.0431,0.0421,0.0417,0.0412,0.0397,0.0384,0.036,0.0351,0.0314,0.0278,0.0205,0.0164,0.0038,0.0065,-0.0014,-0.0072,-0.0075,-0.0109,-0.0123,-0.0163,-0.0195,-0.0108,-0.0107,-0.0107,-0.0106,0,0.0452,0.0441,0.0441,0.0436,0.0422,0.0419,0.0412,0.0396,0.0402,0.0382,0.0395,0.0311,0.0283,0.017,0.0056,0.0043,-0.0068,-0.0102,-0.0187,-0.0187,-0.0233,-0.0236,-0.0202,-0.0202,-0.0202,-0.0202,-0.0202,0,0.0458,0.0457,0.0451,0.045,0.0454,0.044,0.0453,0.0443,0.045,0.0473,0.0418,0.0424,0.0281,0.0207,0.0083,-0.0055,-0.005,-0.0187,-0.0208,-0.0216,-0.0216,-0.0183,-0.018,-0.0204,-0.0203,-0.0203,-0.0203,0,0.0471,0.0466,0.0466,0.046,0.0461,0.0465,0.0484,0.0499,0.0509,0.054,0.0539,0.0505,0.0419,0.0282,0.0117,-0.0008,-0.0146,-0.0201,-0.0183,-0.0202,-0.0243,-0.0237,-0.031,-0.0311,-0.0312,-0.0313,-0.0313,0,0.0481,0.0483,0.0479,0.0483,0.0483,0.0493,0.0506,0.0521,0.055,0.0594,0.0612,0.0565,0.053,0.0309,0.0076,-0.0137,-0.0136,-0.0278,-0.0327,-0.0245,-0.0258,-0.0251,-0.0244,-0.0363,-0.0364,-0.0364,-0.0365,0,0.0499,0.0496,0.0494,0.0503,0.0514,0.0535,0.0562,0.0604,0.0638,0.0695,0.0753,0.0737,0.0516,0.0297,0.0015,-0.0133,-0.0247,-0.0301,-0.0233,-0.0328,-0.0298,-0.0309,-0.0301,-0.0372,-0.0371,-0.0371,-0.037,-0.037,0.0514,0.0515,0.0514,0.0519,0.0538,0.0583,0.0639,0.07,0.0787,0.0884,0.0832,0.0829,0.0546,0.0182,-0.0068,-0.0308,-0.0314,-0.0403,-0.0399,-0.0395,-0.0389,-0.0362,-0.0445,-0.0444,-0.0444,-0.0444,-0.0444,0,0.0535,0.0534,0.0535,0.0552,0.0586,0.0591,0.0682,0.0787,0.0937,0.0962,0.1001,0.0755,0.0473,0.0216,-0.0189,-0.0449,-0.0467,-0.0476,-0.0458,-0.0451,-0.0445,-0.044,-0.051,-0.051,-0.0511,-0.0511,0,0,0.0543,0.0549,0.0539,0.0586,0.0616,0.0721,0.0798,0.0982,0.1068,0.1129,0.1099,0.0934,0.057,0.0278,-0.0078,-0.0278,-0.0287,-0.0307,-0.0239,-0.0173,-0.0162,-0.0404,-0.0389,0,0,0,0,0]}],[{"header":{"parameterUnit":"m.s-1","parameterCategory":2,"la1":30.2991,"la2":30.254,"lo1":-89.0895,"lo2":-89.0444,"dy":0.0017,"dx":0.0017,"nx":28,"ny":28,"refTime":"2025-07-28T21:00:00:Z","depth":"4","parameterNumber":2,"parameterNumberName":"U-component_of_CURRENTS"},"data":[0,0,0,0,0,0,0,0,0,0,0,0,0,0,0,0,0,0,0,0,0,0,0,0,0,0,0,0,0,0,0,0,0,0,0,0,0,0,0,0,0,0,0,0,0,0,0,0,0,0,0,0,0,0,0,0,0,0,0.0403,0.0403,0,0.0431,0.0432,0.0432,0.048,0.0481,0.0482,0.0483,0.0484,0.0483,0.0482,0,0,0,0,0,0,0,0,0,0,0,0,0,0.037,0.037,0.0402,0.0403,0.0404,0.0431,0.0432,0.0432,0.0479,0.0481,0.0482,0.0484,0.0484,0.0483,0.0482,0,0,0,0,0,0,0,0,0,0,0,0,0,0.0387,0.037,0.0402,0.0433,0.0436,0.0431,0.0432,0.0432,0.0479,0.0481,0.0483,0.0484,0.0485,0.0483,0.0482,0.0437,0,0,0.0477,0.0476,0,0,0,0,0,0,0,0,0.0386,0.0388,0.0428,0.0431,0.0435,0.0456,0.0421,0.0433,0.0479,0.046,0.0483,0.0485,0.0473,0.0472,0.047,0.0437,0.0437,0.0477,0.0476,0.0475,0.0474,0,0,0,0,0,0,0,0.0385,0.0387,0.0411,0.0429,0.0433,0.0439,0.0444,0.0423,0.0453,0.0461,0.0466,0.0473,0.0474,0.0471,0.047,0.0437,0.0477,0.0475,0.0474,0.0474,0.042,0.042,0,0,0,0,0,0,0.0386,0.0386,0.041,0.0412,0.0418,0.0439,0.0443,0.0445,0.0454,0.0458,0.0472,0.0475,0.0473,0.0472,0.047,0.0478,0.0475,0.0473,0.0473,0.0421,0.042,0.042,0,0,0,0,0,0,0.0385,0.0388,0.0409,0.0402,0.0406,0.0438,0.0439,0.0445,0.0475,0.0463,0.0466,0.05,0.0475,0.0473,0.0482,0.0476,0.0473,0.0471,0.0421,0.0421,0.042,0.0454,0,0,0,0,0,0,0.0384,0.0387,0.0403,0.0402,0.0407,0.0435,0.0438,0.0444,0.0476,0.0482,0.0487,0.0488,0.0476,0.0485,0.0481,0.0474,0.047,0.0422,0.0421,0.042,0.0453,0.0454,0.0455,0,0,0,0,0,0.0383,0.039,0.0404,0.0408,0.0423,0.0436,0.044,0.0466,0.0476,0.0497,0.0498,0.0489,0.0476,0.0484,0.0479,0.0471,0.0422,0.0421,0.042,0.0453,0.0454,0.0455,0,0,0,0,0,0,0.0384,0.0396,0.0411,0.0423,0.0445,0.0447,0.0467,0.0479,0.0494,0.0508,0.0491,0.0491,0.0491,0.0476,0.0485,0.0451,0.0443,0.0441,0.0469,0.047,0.0471,0.0491,0.0469,0,0,0,0,0,0.0391,0.0406,0.0418,0.0435,0.0444,0.046,0.0473,0.0495,0.0502,0.0513,0.0512,0.05,0.0474,0.0474,0.0456,0.0444,0.0449,0.0432,0.0433,0.0434,0.0445,0.0438,0.044,0.0416,0.0416,0.0416,0,0,0.0397,0.0408,0.0418,0.0439,0.0453,0.0475,0.0473,0.0506,0.0523,0.0506,0.053,0.0509,0.0472,0.0459,0.0456,0.0454,0.0447,0.0433,0.0434,0.0445,0.0437,0.044,0.0442,0.0416,0.0416,0.0416,0,0,0.0412,0.0426,0.0445,0.0465,0.0502,0.0507,0.0523,0.0542,0.0553,0.0567,0.0547,0.0536,0.0509,0.0483,0.0459,0.0454,0.0452,0.0438,0.0462,0.0455,0.0457,0.0459,0.0493,0.0498,0.044,0.044,0.044,0,0.0431,0.0448,0.0456,0.0483,0.0505,0.0524,0.0554,0.0557,0.0581,0.0582,0.0586,0.054,0.0516,0.0479,0.0475,0.0458,0.0468,0.0463,0.0458,0.046,0.0462,0.0496,0.0501,0.0441,0.0441,0.0441,0.0441,0,0.0449,0.0483,0.0495,0.0534,0.0556,0.0588,0.0597,0.0618,0.0627,0.0625,0.0611,0.0577,0.0552,0.0526,0.0498,0.0482,0.0493,0.0462,0.0462,0.0467,0.0502,0.0507,0.0443,0.0443,0.0442,0.0442,0,0,0.045,0.0501,0.0514,0.0539,0.059,0.0602,0.0631,0.0647,0.0664,0.0661,0.0668,0.0606,0.0595,0.0568,0.0528,0.0515,0.0536,0.0498,0.0497,0.0545,0.0556,0.0574,0.0581,0.0504,0.0505,0.0505,0.0586,0,0.0475,0.0518,0.0549,0.0602,0.0616,0.0653,0.0678,0.0697,0.0703,0.0715,0.0666,0.066,0.0605,0.0603,0.0575,0.0545,0.0546,0.052,0.0532,0.0534,0.0559,0.0585,0.0506,0.0589,0.059,0.0591,0.0592,0,0.0489,0.0508,0.0559,0.0619,0.0635,0.0682,0.0724,0.0757,0.077,0.0772,0.0756,0.073,0.0704,0.0661,0.0626,0.0614,0.0593,0.0571,0.0573,0.0581,0.0559,0.0574,0.06,0.0599,0.0599,0.0598,0.0598,0,0.0451,0.0523,0.0559,0.0581,0.0647,0.069,0.0741,0.0778,0.0792,0.0828,0.0847,0.0804,0.081,0.0756,0.07,0.0674,0.0677,0.0634,0.0637,0.064,0.0585,0.0582,0.0622,0.0622,0.0622,0.0622,0.0622,0,0.0454,0.0486,0.0552,0.0568,0.0617,0.0688,0.0744,0.0792,0.0845,0.0866,0.0885,0.088,0.0834,0.0815,0.0746,0.0719,0.0716,0.0663,0.0659,0.06,0.0597,0.0591,0.0586,0.0625,0.0624,0.0624,0.0623,0,0.0426,0.0467,0.0503,0.0577,0.0602,0.0649,0.0743,0.0778,0.0861,0.0898,0.0917,0.0951,0.0959,0.0915,0.0862,0.0806,0.0758,0.0746,0.0734,0.0725,0.0724,0.0719,0.078,0.0781,0.0782,0.0783,0.0784,0,0.042,0.0432,0.0494,0.0516,0.0567,0.0629,0.0675,0.0763,0.0801,0.0911,0.0926,0.0988,0.0988,0.0955,0.0905,0.0851,0.081,0.0815,0.0726,0.0749,0.0739,0.0733,0.0727,0.0786,0.0786,0.0786,0.0786,0,0.0396,0.0427,0.0449,0.0484,0.0537,0.057,0.0654,0.0666,0.0779,0.0849,0.0918,0.0939,0.0978,0.0946,0.0944,0.0867,0.0824,0.0825,0.0821,0.0738,0.0756,0.0744,0.0737,0.079,0.079,0.0789,0.0789,0,0.0377,0.0387,0.0417,0.045,0.0494,0.0524,0.0561,0.0633,0.0678,0.0825,0.0827,0.0905,0.0961,0.0956,0.0911,0.0898,0.0866,0.0818,0.0814,0.081,0.0777,0.0802,0.0865,0,0,0,0,0,0.0354,0.0355,0.0382,0.0403,0.0447,0.0475,0.0553,0.0596,0.069,0.0733,0.0788,0.0818,0.0853,0.0873,0.0859,0.0898,0.0845,0.0878,0.078,0.081,0.0806,0.0761,0,0,0,0,0,0,0.0334,0.0347,0.0359,0.0356,0.037,0.041,0.0458,0.0526,0.0555,0.0665,0.0678,0.0778,0.0799,0.0842,0.0841,0.0849,0.0777,0.0924,0.0923,0.0813,0.0809,0.0805,0.0758,0,0,0,0,0]},{"header":{"parameterUnit":"m.s-1","parameterCategory":2,"la1":30.2991,"la2":30.254,"lo1":-89.0895,"lo2":-89.0444,"dy":0.0017,"dx":0.0017,"nx":28,"ny":28,"refTime":"2025-07-28T21:00:00:Z","depth":"4","parameterNumber":3,"parameterNumberName":"V-component_of_CURRENTS"},"data":[0,0,0,0,0,0,0,0,0,0,0,0,0,0,0,0,0,0,0,0,0,0,0,0,0,0,0,0,0,0,0,0,0,0,0,0,0,0,0,0,0,0,0,0,0,0,0,0,0,0,0,0,0,0,0,0,0,0,-0.0232,-0.0233,0,-0.0304,-0.0305,-0.0306,-0.0387,-0.0389,-0.039,-0.0391,-0.0543,-0.0546,-0.0548,0,0,0,0,0,0,0,0,0,0,0,0,0,-0.0178,-0.0179,-0.0232,-0.0233,-0.0234,-0.0304,-0.0305,-0.0306,-0.0387,-0.0389,-0.039,-0.0392,-0.0542,-0.0545,-0.0549,0,0,0,0,0,0,0,0,0,0,0,0,0,-0.022,-0.0179,-0.0232,-0.0284,-0.0289,-0.0304,-0.0305,-0.0306,-0.0387,-0.0389,-0.0391,-0.0392,-0.0541,-0.0545,-0.0549,-0.0537,0,0,-0.0562,-0.0564,0,0,0,0,0,0,0,0,-0.0218,-0.0222,-0.0275,-0.028,-0.0286,-0.034,-0.0342,-0.0387,-0.0386,-0.0349,-0.0391,-0.0393,-0.0481,-0.0491,-0.0497,-0.0544,-0.055,-0.0563,-0.0565,-0.0567,-0.0568,0,0,0,0,0,0,0,-0.0215,-0.0219,-0.026,-0.0276,-0.0283,-0.0308,-0.0316,-0.035,-0.0404,-0.0352,-0.0358,-0.0367,-0.0485,-0.0493,-0.0502,-0.0552,-0.0562,-0.0566,-0.0569,-0.0571,-0.0702,-0.0703,0,0,0,0,0,0,-0.0205,-0.0216,-0.0258,-0.0262,-0.0257,-0.0307,-0.0316,-0.032,-0.0402,-0.0416,-0.0365,-0.0371,-0.0485,-0.0497,-0.0508,-0.0584,-0.0567,-0.0571,-0.0573,-0.0701,-0.0703,-0.0704,0,0,0,0,0,0,-0.0203,-0.0207,-0.0255,-0.0242,-0.025,-0.0306,-0.031,-0.032,-0.0365,-0.0412,-0.0428,-0.0404,-0.0487,-0.0502,-0.0579,-0.0587,-0.0573,-0.0577,-0.07,-0.0702,-0.0703,-0.0681,0,0,0,0,0,0,-0.0201,-0.0206,-0.022,-0.0241,-0.025,-0.0291,-0.0308,-0.032,-0.0365,-0.0374,-0.0449,-0.0463,-0.0489,-0.0573,-0.0583,-0.0593,-0.058,-0.0699,-0.0701,-0.0703,-0.068,-0.0681,-0.0682,0,0,0,0,0,-0.0199,-0.0203,-0.022,-0.0226,-0.0262,-0.0292,-0.03,-0.0346,-0.0365,-0.0391,-0.0447,-0.0462,-0.0591,-0.0577,-0.059,-0.06,-0.0698,-0.07,-0.0703,-0.068,-0.0681,-0.0682,0,0,0,0,0,0,-0.0189,-0.0212,-0.0232,-0.0245,-0.0281,-0.0308,-0.0329,-0.0359,-0.0418,-0.0441,-0.0481,-0.0499,-0.0567,-0.0591,-0.0574,-0.0645,-0.0644,-0.0649,-0.0623,-0.0624,-0.0625,-0.0594,-0.0584,0,0,0,0,0,-0.019,-0.0204,-0.0233,-0.025,-0.0262,-0.03,-0.0322,-0.036,-0.0406,-0.0435,-0.0488,-0.054,-0.0576,-0.0609,-0.0653,-0.0694,-0.0692,-0.0708,-0.0708,-0.0709,-0.0693,-0.0705,-0.0705,-0.0711,-0.0711,-0.0711,0,0,-0.0192,-0.0208,-0.0217,-0.0251,-0.0274,-0.0296,-0.0319,-0.0365,-0.0393,-0.0442,-0.0509,-0.0554,-0.0591,-0.0639,-0.067,-0.0666,-0.0708,-0.0712,-0.0711,-0.0695,-0.0707,-0.0706,-0.0706,-0.0712,-0.0712,-0.0712,0,0,-0.0189,-0.0213,-0.022,-0.0247,-0.0295,-0.0318,-0.0337,-0.039,-0.0424,-0.0489,-0.0523,-0.0574,-0.0647,-0.0663,-0.0677,-0.0708,-0.0715,-0.0732,-0.0708,-0.0721,-0.0719,-0.0718,-0.0713,-0.0712,-0.0728,-0.0728,-0.0728,0,-0.0194,-0.0202,-0.0231,-0.0246,-0.0266,-0.0327,-0.0343,-0.0379,-0.0461,-0.0481,-0.0518,-0.0605,-0.0645,-0.0665,-0.0677,-0.0706,-0.0714,-0.0698,-0.0719,-0.0718,-0.0717,-0.0712,-0.0711,-0.0727,-0.0727,-0.0727,-0.0727,0,-0.0189,-0.0207,-0.0212,-0.0246,-0.0277,-0.0306,-0.0352,-0.0402,-0.0454,-0.0486,-0.0548,-0.0602,-0.0642,-0.0666,-0.0681,-0.0694,-0.07,-0.0719,-0.0708,-0.0714,-0.071,-0.0709,-0.0726,-0.0726,-0.0727,-0.0727,0,0,-0.016,-0.0199,-0.0203,-0.0212,-0.0281,-0.0296,-0.0346,-0.0388,-0.0406,-0.0494,-0.051,-0.0573,-0.0603,-0.062,-0.0651,-0.0665,-0.0666,-0.0688,-0.0689,-0.0667,-0.0685,-0.0662,-0.0658,-0.0695,-0.0695,-0.0695,-0.0682,0,-0.0148,-0.0155,-0.019,-0.0211,-0.0215,-0.0282,-0.031,-0.0366,-0.042,-0.0459,-0.0509,-0.0539,-0.0582,-0.0597,-0.0622,-0.0664,-0.0664,-0.0667,-0.0695,-0.0695,-0.066,-0.0656,-0.0694,-0.0681,-0.0681,-0.0681,-0.0681,0,-0.0128,-0.0132,-0.0139,-0.0172,-0.0179,-0.0203,-0.0251,-0.0288,-0.0353,-0.0391,-0.044,-0.0487,-0.052,-0.0553,-0.0609,-0.0615,-0.0636,-0.0666,-0.0667,-0.0646,-0.0669,-0.0677,-0.0679,-0.0679,-0.0679,-0.0679,-0.0679,0,-0.0072,-0.0097,-0.0095,-0.0109,-0.0157,-0.0168,-0.0197,-0.0262,-0.0274,-0.0334,-0.0346,-0.0421,-0.0438,-0.05,-0.0571,-0.0589,-0.063,-0.0659,-0.065,-0.0649,-0.0682,-0.0683,-0.0668,-0.0668,-0.0669,-0.0669,-0.0669,0,-0.0043,-0.0041,-0.0059,-0.0057,-0.0046,-0.0103,-0.0105,-0.0149,-0.0192,-0.0189,-0.0287,-0.0299,-0.0426,-0.0478,-0.0549,-0.0596,-0.0607,-0.0631,-0.0641,-0.0675,-0.0676,-0.0681,-0.0682,-0.0668,-0.0668,-0.0668,-0.0668,0,0.0,-0.0016,-0.0004,-0.0022,-0.002,-0.0012,-0.0028,-0.0025,-0.0076,-0.0074,-0.008,-0.0192,-0.0272,-0.0389,-0.0488,-0.0539,-0.0601,-0.0604,-0.0614,-0.0627,-0.0616,-0.0617,-0.0593,-0.0592,-0.0591,-0.0591,-0.059,0,0.0017,0.003,0.0042,0.0064,0.0058,0.0072,0.0084,0.0042,0.0049,-0.0003,0.0012,-0.0075,-0.0155,-0.0269,-0.0417,-0.0543,-0.0558,-0.0574,-0.061,-0.0594,-0.0607,-0.0609,-0.0611,-0.0589,-0.0589,-0.0588,-0.0588,0,0.0054,0.0059,0.0073,0.0129,0.0159,0.019,0.0208,0.0229,0.0187,0.0153,0.0118,0.002,-0.0074,-0.0236,-0.0332,-0.0428,-0.0569,-0.0566,-0.0569,-0.0603,-0.0589,-0.0603,-0.0606,-0.0585,-0.0586,-0.0586,-0.0586,0,0.0085,0.0109,0.014,0.0188,0.0236,0.029,0.029,0.0305,0.0304,0.0247,0.0235,0.0095,-0.0007,-0.0173,-0.0269,-0.0365,-0.0394,-0.041,-0.0422,-0.0427,-0.0401,-0.0361,-0.028,0,0,0,0,0,0.0115,0.0152,0.02,0.0257,0.0309,0.0338,0.0365,0.0356,0.0333,0.0339,0.0289,0.0199,0.0024,-0.0085,-0.0169,-0.0267,-0.0421,-0.037,-0.0446,-0.0569,-0.0572,-0.0571,0,0,0,0,0,0,0.0137,0.0184,0.0211,0.0308,0.0361,0.0423,0.0443,0.0427,0.0417,0.0371,0.0273,0.0204,0.0019,0.0087,-0.016,-0.02,-0.0252,-0.047,-0.0471,-0.0567,-0.057,-0.0573,-0.0573,0,0,0,0,0]}]]